Time,TemperatureF,DewpointF,PressureIn,WindDirection,WindDirectionDegrees,WindSpeedMPH,WindSpeedGustMPH,Humidity,HourlyPrecipIn,Conditions,Clouds,dailyrainin,SoftwareType,DateUTC
2013-10-10 00:01:00,64.9,61.3,30.04,NNW,327,0.0,0.0,88,0.00,,,0.00,meteohub,2013-10-10 05:01:00,
2013-10-10 00:06:00,64.9,61.3,30.04,NNW,327,0.0,0.0,88,0.00,,,0.00,meteohub,2013-10-10 05:06:00,
2013-10-10 00:11:00,64.9,61.3,30.04,NNW,327,0.0,0.0,88,0.00,,,0.00,meteohub,2013-10-10 05:11:00,
2013-10-10 00:16:00,64.8,61.2,30.04,NNW,327,0.0,0.0,88,0.00,,,0.00,meteohub,2013-10-10 05:16:00,
2013-10-10 00:21:00,64.8,61.5,30.04,NNW,327,0.0,0.0,89,0.00,,,0.00,meteohub,2013-10-10 05:21:00,
2013-10-10 00:26:00,64.8,61.5,30.04,NNW,327,0.0,0.0,89,0.00,,,0.00,meteohub,2013-10-10 05:26:00,
2013-10-10 00:31:00,64.6,61.3,30.04,NNW,327,0.0,0.0,89,0.00,,,0.00,meteohub,2013-10-10 05:31:00,
2013-10-10 00:36:00,64.2,60.6,30.04,NNW,327,0.0,1.0,88,0.00,,,0.00,meteohub,2013-10-10 05:36:00,
2013-10-10 00:41:00,64.2,60.6,30.04,NNW,327,0.0,1.0,88,0.00,,,0.00,meteohub,2013-10-10 05:41:00,
2013-10-10 00:46:00,64.2,60.6,30.04,NNW,327,0.0,1.0,88,0.00,,,0.00,meteohub,2013-10-10 05:46:00,
2013-10-10 00:51:00,64.6,61.0,30.04,NNW,327,0.0,2.0,88,0.00,,,0.00,meteohub,2013-10-10 05:51:00,
2013-10-10 00:56:00,64.6,61.0,30.04,NNW,327,1.0,2.0,88,0.00,,,0.00,meteohub,2013-10-10 05:56:00,
2013-10-10 01:02:00,64.8,61.2,30.04,NNW,327,1.0,2.0,88,0.00,,,0.00,meteohub,2013-10-10 06:02:00,
2013-10-10 01:07:00,64.9,61.3,30.04,NNW,327,0.0,2.0,88,0.00,,,0.00,meteohub,2013-10-10 06:07:00,
2013-10-10 01:12:00,64.9,61.7,30.04,NNW,327,0.0,2.0,89,0.00,,,0.00,meteohub,2013-10-10 06:12:00,
2013-10-10 01:17:00,64.9,61.7,30.04,NNW,327,1.0,2.0,89,0.00,,,0.00,meteohub,2013-10-10 06:17:00,
2013-10-10 01:22:00,64.9,61.7,30.04,NNW,327,1.0,2.0,89,0.00,,,0.00,meteohub,2013-10-10 06:22:00,
2013-10-10 01:27:00,64.9,61.9,30.04,NNW,327,2.0,2.0,90,0.00,,,0.00,meteohub,2013-10-10 06:27:00,
2013-10-10 01:32:00,64.9,62.2,30.04,NNW,327,2.0,2.0,91,0.00,,,0.00,meteohub,2013-10-10 06:32:00,
2013-10-10 01:37:00,64.9,62.2,30.04,NNW,327,0.0,2.0,91,0.00,,,0.00,meteohub,2013-10-10 06:37:00,
2013-10-10 01:42:00,65.1,62.8,30.04,NNW,327,0.0,2.0,92,0.00,,,0.00,meteohub,2013-10-10 06:42:00,
2013-10-10 01:47:00,65.1,62.8,30.04,NNW,327,0.0,2.0,92,0.00,,,0.00,meteohub,2013-10-10 06:47:00,
2013-10-10 01:52:00,65.3,63.1,30.04,NNW,327,0.0,2.0,93,0.00,,,0.00,meteohub,2013-10-10 06:52:00,
2013-10-10 01:57:00,65.3,63.1,30.04,NNW,327,0.0,1.0,93,0.00,,,0.00,meteohub,2013-10-10 06:57:00,
2013-10-10 02:02:00,65.3,63.1,30.05,NNW,327,0.0,1.0,93,0.00,,,0.00,meteohub,2013-10-10 07:02:00,
2013-10-10 02:07:00,65.3,63.1,30.04,NNW,327,0.0,0.0,93,0.00,,,0.00,meteohub,2013-10-10 07:07:00,
2013-10-10 02:12:00,65.3,63.1,30.04,NNW,327,0.0,0.0,93,0.00,,,0.00,meteohub,2013-10-10 07:12:00,
2013-10-10 02:17:00,65.1,63.3,30.04,NNW,327,0.0,0.0,94,0.00,,,0.00,meteohub,2013-10-10 07:17:00,
2013-10-10 02:22:00,65.1,63.3,30.04,NNW,327,0.0,1.0,94,0.00,,,0.00,meteohub,2013-10-10 07:22:00,
2013-10-10 02:27:00,65.3,63.5,30.04,NNW,327,0.0,1.0,94,0.00,,,0.00,meteohub,2013-10-10 07:27:00,
2013-10-10 02:32:00,65.3,63.5,30.04,NNW,327,0.0,1.0,94,0.00,,,0.00,meteohub,2013-10-10 07:32:00,
2013-10-10 02:37:00,65.3,63.5,30.04,NNW,327,0.0,1.0,94,0.00,,,0.00,meteohub,2013-10-10 07:37:00,
2013-10-10 02:42:00,65.3,63.5,30.04,NNW,327,0.0,0.0,94,0.00,,,0.00,meteohub,2013-10-10 07:42:00,
2013-10-10 02:47:00,65.3,63.5,30.04,NNW,327,0.0,0.0,94,0.00,,,0.00,meteohub,2013-10-10 07:47:00,
2013-10-10 02:52:00,65.1,63.7,30.04,NNW,327,0.0,0.0,95,0.00,,,0.00,meteohub,2013-10-10 07:52:00,
2013-10-10 02:57:00,65.1,63.7,30.04,NNW,327,0.0,0.0,95,0.00,,,0.00,meteohub,2013-10-10 07:57:00,
2013-10-10 03:02:00,65.1,63.7,30.04,NNW,327,0.0,0.0,95,0.00,,,0.00,meteohub,2013-10-10 08:02:00,
2013-10-10 03:07:00,64.9,63.5,30.04,NNW,327,0.0,0.0,95,0.00,,,0.00,meteohub,2013-10-10 08:07:00,
2013-10-10 03:12:00,64.9,63.5,30.04,NNW,327,0.0,0.0,95,0.00,,,0.00,meteohub,2013-10-10 08:12:00,
2013-10-10 03:17:00,64.9,63.5,30.04,NNW,327,0.0,0.0,95,0.00,,,0.00,meteohub,2013-10-10 08:17:00,
2013-10-10 03:22:00,64.9,63.9,30.04,NNW,327,0.0,0.0,96,0.00,,,0.00,meteohub,2013-10-10 08:22:00,
2013-10-10 03:27:00,64.9,63.9,30.04,NNW,327,0.0,0.0,96,0.00,,,0.00,meteohub,2013-10-10 08:27:00,
2013-10-10 03:32:00,64.9,63.9,30.04,NNW,327,0.0,0.0,96,0.00,,,0.00,meteohub,2013-10-10 08:32:00,
2013-10-10 03:37:00,65.1,64.0,30.04,NNW,327,0.0,0.0,96,0.00,,,0.00,meteohub,2013-10-10 08:37:00,
2013-10-10 03:42:00,64.9,63.9,30.04,NNW,327,0.0,1.0,96,0.00,,,0.00,meteohub,2013-10-10 08:42:00,
2013-10-10 03:47:00,65.1,64.0,30.04,NNW,327,0.0,1.0,96,0.00,,,0.00,meteohub,2013-10-10 08:47:00,
2013-10-10 03:52:00,65.1,64.0,30.04,NNW,327,0.0,1.0,96,0.00,,,0.00,meteohub,2013-10-10 08:52:00,
2013-10-10 03:57:00,65.1,64.2,30.04,NNW,327,0.0,0.0,97,0.00,,,0.00,meteohub,2013-10-10 08:57:00,
2013-10-10 04:02:00,65.1,64.2,30.04,NNW,327,0.0,0.0,97,0.00,,,0.00,meteohub,2013-10-10 09:02:00,
2013-10-10 04:07:00,65.1,64.2,30.04,NNW,327,0.0,0.0,97,0.00,,,0.00,meteohub,2013-10-10 09:07:00,
2013-10-10 04:12:00,65.1,64.2,30.04,NNW,327,0.0,0.0,97,0.00,,,0.00,meteohub,2013-10-10 09:12:00,
2013-10-10 04:17:00,65.1,64.2,30.04,NNW,327,0.0,0.0,97,0.00,,,0.00,meteohub,2013-10-10 09:17:00,
2013-10-10 04:22:00,65.1,64.2,30.04,NNW,327,0.0,0.0,97,0.00,,,0.00,meteohub,2013-10-10 09:22:00,
2013-10-10 04:27:00,65.1,64.2,30.04,NNW,327,0.0,0.0,97,0.00,,,0.00,meteohub,2013-10-10 09:27:00,
2013-10-10 04:32:00,65.1,64.2,30.04,NNW,327,0.0,0.0,97,0.00,,,0.00,meteohub,2013-10-10 09:32:00,
2013-10-10 04:37:00,65.1,64.2,30.05,NNW,327,0.0,0.0,97,0.00,,,0.00,meteohub,2013-10-10 09:37:00,
2013-10-10 04:42:00,65.1,64.2,30.05,NNW,327,0.0,0.0,97,0.00,,,0.00,meteohub,2013-10-10 09:42:00,
2013-10-10 04:47:00,65.1,64.2,30.05,NNW,327,0.0,0.0,97,0.00,,,0.00,meteohub,2013-10-10 09:47:00,
2013-10-10 04:52:00,65.1,64.2,30.05,NNW,327,0.0,1.0,97,0.00,,,0.00,meteohub,2013-10-10 09:52:00,
2013-10-10 04:57:00,65.1,64.2,30.05,NNW,327,0.0,1.0,97,0.00,,,0.00,meteohub,2013-10-10 09:57:00,
2013-10-10 05:02:00,65.1,64.2,30.05,NNW,327,0.0,0.0,97,0.00,,,0.00,meteohub,2013-10-10 10:02:00,
2013-10-10 05:07:00,65.1,64.2,30.05,NNW,327,0.0,0.0,97,0.00,,,0.00,meteohub,2013-10-10 10:07:00,
2013-10-10 05:12:00,65.1,64.2,30.05,NNW,327,0.0,1.0,97,0.00,,,0.00,meteohub,2013-10-10 10:12:00,
2013-10-10 05:17:00,64.9,64.0,30.05,NNW,327,0.0,2.0,97,0.00,,,0.00,meteohub,2013-10-10 10:17:00,
2013-10-10 05:22:00,64.9,64.0,30.05,NNW,327,0.0,2.0,97,0.00,,,0.00,meteohub,2013-10-10 10:22:00,
2013-10-10 05:27:00,64.9,64.0,30.05,NNW,327,0.0,0.0,97,0.00,,,0.00,meteohub,2013-10-10 10:27:00,
2013-10-10 05:32:00,64.9,64.0,30.05,NNW,327,0.0,0.0,97,0.00,,,0.00,meteohub,2013-10-10 10:32:00,
2013-10-10 05:37:00,64.9,64.0,30.05,NNW,327,0.0,0.0,97,0.00,,,0.00,meteohub,2013-10-10 10:37:00,
2013-10-10 05:42:00,64.9,64.0,30.05,NNW,327,0.0,0.0,97,0.00,,,0.00,meteohub,2013-10-10 10:42:00,
2013-10-10 05:47:00,64.8,63.9,30.05,NNW,327,0.0,0.0,97,0.00,,,0.00,meteohub,2013-10-10 10:47:00,
2013-10-10 05:52:00,64.9,64.4,30.05,NNW,327,0.0,0.0,98,0.00,,,0.00,meteohub,2013-10-10 10:52:00,
2013-10-10 05:57:00,64.8,64.2,30.06,NNW,327,0.0,0.0,98,0.00,,,0.00,meteohub,2013-10-10 10:57:00,
2013-10-10 06:02:00,64.9,64.4,30.05,NNW,327,0.0,0.0,98,0.00,,,0.00,meteohub,2013-10-10 11:02:00,
2013-10-10 06:07:00,64.9,64.4,30.06,NNW,327,0.0,0.0,98,0.00,,,0.00,meteohub,2013-10-10 11:07:00,
2013-10-10 06:12:00,64.9,64.4,30.05,NNW,327,0.0,1.0,98,0.00,,,0.00,meteohub,2013-10-10 11:12:00,
2013-10-10 06:17:00,64.9,64.4,30.05,NNW,327,0.0,1.0,98,0.00,,,0.00,meteohub,2013-10-10 11:17:00,
2013-10-10 06:22:00,64.8,64.2,30.05,NNW,327,1.0,2.0,98,0.00,,,0.00,meteohub,2013-10-10 11:22:00,
2013-10-10 06:27:00,64.9,64.4,30.05,NNW,327,1.0,2.0,98,0.00,,,0.00,meteohub,2013-10-10 11:27:00,
2013-10-10 06:32:00,64.9,64.4,30.05,NNW,327,0.0,2.0,98,0.00,,,0.00,meteohub,2013-10-10 11:32:00,
2013-10-10 06:37:00,64.9,64.4,30.05,NNW,327,0.0,2.0,98,0.00,,,0.00,meteohub,2013-10-10 11:37:00,
2013-10-10 06:42:00,64.9,64.4,30.05,NNW,327,0.0,1.0,98,0.00,,,0.00,meteohub,2013-10-10 11:42:00,
2013-10-10 06:47:00,64.9,64.4,30.05,NNW,327,0.0,2.0,98,0.00,,,0.00,meteohub,2013-10-10 11:47:00,
2013-10-10 06:52:00,64.9,64.4,30.05,NNW,327,0.0,2.0,98,0.00,,,0.00,meteohub,2013-10-10 11:52:00,
2013-10-10 06:57:00,64.9,64.4,30.05,NNW,327,0.0,2.0,98,0.00,,,0.00,meteohub,2013-10-10 11:57:00,
2013-10-10 07:02:00,64.9,64.4,30.05,NNW,327,1.0,1.0,98,0.00,,,0.00,meteohub,2013-10-10 12:02:00,
2013-10-10 07:07:00,64.9,64.4,30.06,NNW,327,0.0,2.0,98,0.00,,,0.00,meteohub,2013-10-10 12:07:00,
2013-10-10 07:12:00,64.9,64.4,30.06,NNW,327,0.0,4.0,98,0.00,,,0.00,meteohub,2013-10-10 12:12:00,
2013-10-10 07:17:00,64.9,64.4,30.06,NNW,327,0.0,4.0,98,0.00,,,0.00,meteohub,2013-10-10 12:17:00,
2013-10-10 07:22:00,64.9,64.4,30.06,NNW,327,0.0,2.0,98,0.00,,,0.00,meteohub,2013-10-10 12:22:00,
2013-10-10 07:27:00,64.9,64.4,30.06,NNW,327,0.0,2.0,98,0.00,,,0.00,meteohub,2013-10-10 12:27:00,
2013-10-10 07:32:00,65.1,64.6,30.06,NNW,327,0.0,2.0,98,0.00,,,0.00,meteohub,2013-10-10 12:32:00,
2013-10-10 07:37:00,65.1,64.6,30.06,NNW,327,0.0,0.0,98,0.00,,,0.00,meteohub,2013-10-10 12:37:00,
2013-10-10 07:42:00,65.3,64.8,30.06,NNW,327,0.0,0.0,98,0.00,,,0.00,meteohub,2013-10-10 12:42:00,
2013-10-10 07:47:00,65.3,64.8,30.06,NNW,327,0.0,1.0,98,0.00,,,0.00,meteohub,2013-10-10 12:47:00,
2013-10-10 07:52:00,65.5,64.9,30.06,NNW,327,0.0,1.0,98,0.00,,,0.00,meteohub,2013-10-10 12:52:00,
2013-10-10 07:57:00,65.5,64.9,30.06,NNW,327,0.0,1.0,98,0.00,,,0.00,meteohub,2013-10-10 12:57:00,
2013-10-10 08:02:00,65.5,64.9,30.07,NNW,327,0.0,1.0,98,0.00,,,0.00,meteohub,2013-10-10 13:02:00,
2013-10-10 08:07:00,65.7,65.1,30.07,NNW,327,0.0,1.0,98,0.00,,,0.00,meteohub,2013-10-10 13:07:00,
2013-10-10 08:12:00,65.7,65.1,30.07,NNW,327,0.0,1.0,98,0.00,,,0.00,meteohub,2013-10-10 13:12:00,
2013-10-10 08:17:00,65.7,65.1,30.07,NNW,327,0.0,2.0,98,0.00,,,0.00,meteohub,2013-10-10 13:17:00,
2013-10-10 08:22:00,65.8,65.3,30.07,NNW,327,0.0,2.0,98,0.00,,,0.00,meteohub,2013-10-10 13:22:00,
2013-10-10 08:27:00,66.0,65.7,30.07,NNW,327,0.0,2.0,99,0.00,,,0.00,meteohub,2013-10-10 13:27:00,
2013-10-10 08:32:00,66.2,65.8,30.07,NNW,327,0.0,1.0,99,0.00,,,0.00,meteohub,2013-10-10 13:32:00,
2013-10-10 08:37:00,66.4,66.0,30.08,NNW,327,0.0,0.0,99,0.00,,,0.00,meteohub,2013-10-10 13:37:00,
2013-10-10 08:42:00,66.6,66.2,30.08,NNW,327,1.0,0.0,99,0.00,,,0.00,meteohub,2013-10-10 13:42:00,
2013-10-10 08:47:00,66.6,66.0,30.08,NNW,327,1.0,1.0,98,0.00,,,0.00,meteohub,2013-10-10 13:47:00,
2013-10-10 08:52:00,66.6,66.0,30.08,NNW,328,0.0,4.0,98,0.00,,,0.00,meteohub,2013-10-10 13:52:00,
2013-10-10 08:57:00,66.7,66.4,30.09,NNW,329,0.0,4.0,99,0.00,,,0.00,meteohub,2013-10-10 13:57:00,
2013-10-10 09:02:00,66.7,66.4,30.08,NNW,328,0.0,4.0,99,0.00,,,0.00,meteohub,2013-10-10 14:02:00,
2013-10-10 09:07:00,66.9,66.4,30.09,NNW,328,0.0,1.0,98,0.00,,,0.00,meteohub,2013-10-10 14:07:00,
2013-10-10 09:12:00,66.9,66.4,30.09,NNW,329,0.0,0.0,98,0.00,,,0.00,meteohub,2013-10-10 14:12:00,
2013-10-10 09:17:00,66.7,66.2,30.09,NNW,328,0.0,0.0,98,0.00,,,0.00,meteohub,2013-10-10 14:17:00,
2013-10-10 09:22:00,66.7,66.2,30.09,NNW,329,0.0,2.0,98,0.00,,,0.00,meteohub,2013-10-10 14:22:00,
2013-10-10 09:27:00,67.1,66.6,30.09,NNW,328,0.0,2.0,98,0.00,,,0.00,meteohub,2013-10-10 14:27:00,
2013-10-10 09:32:00,67.3,66.7,30.09,NNW,329,0.0,2.0,98,0.00,,,0.00,meteohub,2013-10-10 14:32:00,
2013-10-10 09:37:00,67.6,67.1,30.09,NNW,328,0.0,2.0,98,0.00,,,0.00,meteohub,2013-10-10 14:37:00,
2013-10-10 09:42:00,67.8,67.3,30.09,NNW,329,0.0,2.0,98,0.00,,,0.00,meteohub,2013-10-10 14:42:00,
2013-10-10 09:47:00,68.2,67.6,30.09,NNW,329,0.0,0.0,98,0.00,,,0.00,meteohub,2013-10-10 14:47:00,
2013-10-10 09:52:00,68.2,67.3,30.10,NNW,328,0.0,0.0,97,0.00,,,0.00,meteohub,2013-10-10 14:52:00,
2013-10-10 09:57:00,68.4,67.5,30.10,NNW,329,0.0,1.0,97,0.00,,,0.00,meteohub,2013-10-10 14:57:00,
2013-10-10 10:02:00,68.5,67.6,30.10,NNW,329,0.0,1.0,97,0.00,,,0.00,meteohub,2013-10-10 15:02:00,
2013-10-10 10:07:00,68.7,67.5,30.10,NNW,328,0.0,1.0,96,0.00,,,0.00,meteohub,2013-10-10 15:07:00,
2013-10-10 10:12:00,69.1,67.8,30.10,NNW,328,0.0,1.0,96,0.00,,,0.00,meteohub,2013-10-10 15:12:00,
2013-10-10 10:17:00,69.4,68.0,30.10,NNW,329,0.0,2.0,95,0.00,,,0.00,meteohub,2013-10-10 15:17:00,
2013-10-10 10:22:00,69.6,67.8,30.10,NNW,328,0.0,2.0,94,0.00,,,0.00,meteohub,2013-10-10 15:22:00,
2013-10-10 10:27:00,70.0,68.2,30.10,NNW,329,1.0,2.0,94,0.00,,,0.00,meteohub,2013-10-10 15:27:00,
2013-10-10 10:32:00,70.2,68.4,30.10,NNW,329,0.0,2.0,94,0.00,,,0.00,meteohub,2013-10-10 15:32:00,
2013-10-10 10:37:00,70.3,68.2,30.10,NNW,328,0.0,2.0,93,0.00,,,0.00,meteohub,2013-10-10 15:37:00,
2013-10-10 10:42:00,70.3,67.8,30.10,NNW,329,0.0,2.0,92,0.00,,,0.00,meteohub,2013-10-10 15:42:00,
2013-10-10 10:47:00,70.2,68.0,30.10,NNW,329,0.0,2.0,93,0.00,,,0.00,meteohub,2013-10-10 15:47:00,
2013-10-10 10:52:00,70.3,68.2,30.10,NNW,329,0.0,2.0,93,0.00,,,0.00,meteohub,2013-10-10 15:52:00,
2013-10-10 10:57:00,71.1,68.5,30.09,NNW,329,0.0,2.0,92,0.00,,,0.00,meteohub,2013-10-10 15:57:00,
2013-10-10 11:02:00,72.0,69.4,30.09,NNW,329,0.0,2.0,92,0.00,,,0.00,meteohub,2013-10-10 16:02:00,
2013-10-10 11:07:00,73.0,69.6,30.10,NNW,329,0.0,2.0,89,0.00,,,0.00,meteohub,2013-10-10 16:07:00,
2013-10-10 11:12:00,73.4,69.6,30.10,NNW,329,0.0,2.0,88,0.00,,,0.00,meteohub,2013-10-10 16:12:00,
2013-10-10 11:17:00,73.6,69.1,30.10,NNW,329,0.0,2.0,86,0.00,,,0.00,meteohub,2013-10-10 16:17:00,
2013-10-10 11:22:00,73.6,69.1,30.10,NNW,329,0.0,2.0,86,0.00,,,0.00,meteohub,2013-10-10 16:22:00,
2013-10-10 11:27:00,73.9,69.1,30.10,NNW,329,0.0,1.0,85,0.00,,,0.00,meteohub,2013-10-10 16:27:00,
2013-10-10 11:32:00,74.1,69.6,30.09,NNW,329,0.0,2.0,86,0.00,,,0.00,meteohub,2013-10-10 16:32:00,
2013-10-10 11:37:00,75.0,69.4,30.09,NNW,329,0.0,2.0,83,0.00,,,0.00,meteohub,2013-10-10 16:37:00,
2013-10-10 11:42:00,75.7,69.1,30.09,NNW,329,0.0,1.0,80,0.00,,,0.00,meteohub,2013-10-10 16:42:00,
2013-10-10 11:47:00,75.9,69.6,30.09,NNW,329,1.0,4.0,81,0.00,,,0.00,meteohub,2013-10-10 16:47:00,
2013-10-10 11:52:00,77.2,70.2,30.09,NNW,329,2.0,4.0,79,0.00,,,0.00,meteohub,2013-10-10 16:52:00,
2013-10-10 11:57:00,78.4,70.7,30.09,NNW,329,0.0,4.0,77,0.00,,,0.00,meteohub,2013-10-10 16:57:00,
2013-10-10 12:02:00,79.3,70.0,30.09,NNW,329,0.0,4.0,73,0.00,,,0.00,meteohub,2013-10-10 17:02:00,
2013-10-10 12:07:00,79.3,69.4,30.09,NNW,329,1.0,4.0,72,0.00,,,0.00,meteohub,2013-10-10 17:07:00,
2013-10-10 12:12:00,79.7,69.1,30.08,NNW,329,2.0,2.0,70,0.00,,,0.00,meteohub,2013-10-10 17:12:00,
2013-10-10 12:17:00,79.3,69.1,30.08,NNW,329,0.0,4.0,71,0.00,,,0.00,meteohub,2013-10-10 17:17:00,
2013-10-10 12:22:00,79.3,69.1,30.08,NNW,329,0.0,4.0,71,0.00,,,0.00,meteohub,2013-10-10 17:22:00,
2013-10-10 12:27:00,79.3,68.7,30.08,NNW,329,0.0,4.0,70,0.00,,,0.00,meteohub,2013-10-10 17:27:00,
2013-10-10 12:32:00,79.7,69.1,30.08,NNW,329,2.0,2.0,70,0.00,,,0.00,meteohub,2013-10-10 17:32:00,
2013-10-10 12:37:00,79.2,68.2,30.08,WNW,294,1.0,5.0,69,0.00,,,0.00,meteohub,2013-10-10 17:37:00,
2013-10-10 12:42:00,78.8,68.2,30.07,WNW,294,2.0,5.0,70,0.00,,,0.00,meteohub,2013-10-10 17:42:00,
2013-10-10 12:47:00,78.6,68.4,30.07,WNW,295,1.0,5.0,71,0.00,,,0.00,meteohub,2013-10-10 17:47:00,
2013-10-10 12:52:00,79.5,68.5,30.07,WNW,295,0.0,4.0,69,0.00,,,0.00,meteohub,2013-10-10 17:52:00,
2013-10-10 12:57:00,80.2,68.4,30.07,WNW,295,0.0,4.0,67,0.00,,,0.00,meteohub,2013-10-10 17:57:00,
2013-10-10 13:02:00,80.4,68.5,30.06,WNW,293,0.0,4.0,67,0.00,,,0.00,meteohub,2013-10-10 18:02:00,
2013-10-10 13:07:00,80.8,68.4,30.06,WNW,293,0.0,4.0,66,0.00,,,0.00,meteohub,2013-10-10 18:07:00,
2013-10-10 13:12:00,80.8,67.5,30.06,WNW,294,0.0,6.0,64,0.00,,,0.00,meteohub,2013-10-10 18:12:00,
2013-10-10 13:17:00,81.0,68.0,30.06,NNW,348,1.0,6.0,65,0.00,,,0.00,meteohub,2013-10-10 18:17:00,
2013-10-10 13:22:00,81.9,68.9,30.05,NNW,348,1.0,6.0,65,0.00,,,0.00,meteohub,2013-10-10 18:22:00,
2013-10-10 13:27:00,82.0,67.6,30.05,NNW,348,1.0,4.0,62,0.00,,,0.00,meteohub,2013-10-10 18:27:00,
2013-10-10 13:32:00,82.2,67.8,30.04,NNW,348,0.0,2.0,62,0.00,,,0.00,meteohub,2013-10-10 18:32:00,
2013-10-10 13:37:00,82.9,67.6,30.04,NNW,344,0.0,2.0,60,0.00,,,0.00,meteohub,2013-10-10 18:37:00,
2013-10-10 13:42:00,83.3,68.0,30.04,SSE,153,2.0,4.0,60,0.00,,,0.00,meteohub,2013-10-10 18:42:00,
2013-10-10 13:47:00,83.8,68.0,30.04,ESE,117,1.0,4.0,59,0.00,,,0.00,meteohub,2013-10-10 18:47:00,
2013-10-10 13:52:00,84.7,67.8,30.03,ESE,117,0.0,4.0,57,0.00,,,0.00,meteohub,2013-10-10 18:52:00,
2013-10-10 13:57:00,85.3,68.4,30.03,ESE,115,0.0,4.0,57,0.00,,,0.00,meteohub,2013-10-10 18:57:00,
2013-10-10 14:02:00,84.4,67.5,30.03,NNW,342,0.0,4.0,57,0.00,,,0.00,meteohub,2013-10-10 19:02:00,
2013-10-10 14:07:00,84.2,67.8,30.03,East,83,4.0,6.0,58,0.00,,,0.00,meteohub,2013-10-10 19:07:00,
2013-10-10 14:12:00,83.7,66.7,30.03,East,83,0.0,6.0,57,0.00,,,0.00,meteohub,2013-10-10 19:12:00,
2013-10-10 14:17:00,83.5,66.2,30.03,East,83,0.0,4.0,56,0.00,,,0.00,meteohub,2013-10-10 19:17:00,
2013-10-10 14:22:00,83.7,66.4,30.03,SE,126,5.0,5.0,56,0.00,,,0.00,meteohub,2013-10-10 19:22:00,
2013-10-10 14:27:00,84.2,66.7,30.02,ESE,111,0.0,6.0,56,0.00,,,0.00,meteohub,2013-10-10 19:27:00,
2013-10-10 14:32:00,84.0,66.2,30.03,East,96,1.0,6.0,55,0.00,,,0.00,meteohub,2013-10-10 19:32:00,
2013-10-10 14:37:00,83.7,66.7,30.02,East,96,1.0,6.0,57,0.00,,,0.00,meteohub,2013-10-10 19:37:00,
2013-10-10 14:42:00,83.1,66.4,30.02,East,96,0.0,4.0,57,0.00,,,0.00,meteohub,2013-10-10 19:42:00,
2013-10-10 14:47:00,82.8,66.6,30.02,East,96,0.0,4.0,58,0.00,,,0.00,meteohub,2013-10-10 19:47:00,
2013-10-10 14:52:00,83.1,67.3,30.02,East,96,0.0,4.0,59,0.00,,,0.00,meteohub,2013-10-10 19:52:00,
2013-10-10 14:57:00,84.0,67.1,30.02,SE,141,0.0,7.0,57,0.00,,,0.00,meteohub,2013-10-10 19:57:00,
2013-10-10 15:02:00,84.7,67.3,30.01,SE,136,0.0,7.0,56,0.00,,,0.00,meteohub,2013-10-10 20:02:00,
2013-10-10 15:07:00,85.8,68.4,30.01,SE,136,1.0,7.0,56,0.00,,,0.00,meteohub,2013-10-10 20:07:00,
2013-10-10 15:12:00,86.4,67.8,30.01,East,96,4.0,6.0,54,0.00,,,0.00,meteohub,2013-10-10 20:12:00,
2013-10-10 15:17:00,85.5,67.5,30.01,ESE,110,0.0,5.0,55,0.00,,,0.00,meteohub,2013-10-10 20:17:00,
2013-10-10 15:22:00,84.9,67.5,30.01,ESE,109,2.0,5.0,56,0.00,,,0.00,meteohub,2013-10-10 20:22:00,
2013-10-10 15:27:00,85.3,67.3,30.01,SE,141,0.0,5.0,55,0.00,,,0.00,meteohub,2013-10-10 20:27:00,
2013-10-10 15:31:00,85.6,67.6,30.00,SE,129,2.0,4.0,55,0.00,,,0.00,meteohub,2013-10-10 20:31:00,
2013-10-10 15:36:00,86.2,67.6,30.01,SE,130,1.0,7.0,54,0.00,,,0.00,meteohub,2013-10-10 20:36:00,
2013-10-10 15:41:00,86.2,67.6,30.00,SE,136,4.0,7.0,54,0.00,,,0.00,meteohub,2013-10-10 20:41:00,
2013-10-10 15:46:00,85.8,66.7,30.00,SE,126,0.0,7.0,53,0.00,,,0.00,meteohub,2013-10-10 20:46:00,
2013-10-10 15:51:00,85.6,66.6,30.00,East,88,4.0,7.0,53,0.00,,,0.00,meteohub,2013-10-10 20:51:00,
2013-10-10 15:56:00,84.7,66.7,30.00,East,84,1.0,5.0,55,0.00,,,0.00,meteohub,2013-10-10 20:56:00,
2013-10-10 16:01:00,84.4,67.5,30.00,East,84,2.0,5.0,57,0.00,,,0.00,meteohub,2013-10-10 21:01:00,
2013-10-10 16:06:00,84.0,67.1,30.00,East,84,1.0,5.0,57,0.00,,,0.00,meteohub,2013-10-10 21:06:00,
2013-10-10 16:11:00,84.0,66.6,30.00,East,94,0.0,3.0,56,0.00,,,0.00,meteohub,2013-10-10 21:11:00,
2013-10-10 16:16:00,84.4,67.5,30.00,East,94,1.0,5.0,57,0.00,,,0.00,meteohub,2013-10-10 21:16:00,
2013-10-10 16:21:00,84.0,66.2,30.00,East,85,3.0,5.0,55,0.00,,,0.00,meteohub,2013-10-10 21:21:00,
2013-10-10 16:26:00,83.5,66.2,30.00,East,84,1.0,4.0,56,0.00,,,0.00,meteohub,2013-10-10 21:26:00,
2013-10-10 16:31:00,83.3,66.9,29.99,SE,127,0.0,4.0,58,0.00,,,0.00,meteohub,2013-10-10 21:31:00,
2013-10-10 16:36:00,83.8,66.9,29.99,ESE,123,5.0,5.0,57,0.00,,,0.00,meteohub,2013-10-10 21:36:00,
2013-10-10 16:41:00,84.4,66.9,29.99,SE,127,1.0,6.0,56,0.00,,,0.00,meteohub,2013-10-10 21:41:00,
2013-10-10 16:47:00,84.6,67.1,29.99,ESE,121,1.0,6.0,56,0.00,,,0.00,meteohub,2013-10-10 21:47:00,
2013-10-10 16:52:00,84.6,67.6,29.99,ESE,107,2.0,6.0,57,0.00,,,0.00,meteohub,2013-10-10 21:52:00,
2013-10-10 16:57:00,84.4,66.9,29.99,ESE,119,0.0,7.0,56,0.00,,,0.00,meteohub,2013-10-10 21:57:00,
2013-10-10 17:02:00,83.8,66.9,29.99,ESE,119,0.0,7.0,57,0.00,,,0.00,meteohub,2013-10-10 22:02:00,
2013-10-10 17:07:00,83.1,66.7,29.99,ESE,119,0.0,7.0,58,0.00,,,0.00,meteohub,2013-10-10 22:07:00,
2013-10-10 17:12:00,82.8,66.9,29.99,ESE,119,0.0,4.0,59,0.00,,,0.00,meteohub,2013-10-10 22:12:00,
2013-10-10 17:17:00,82.6,67.3,29.99,ESE,119,0.0,4.0,60,0.00,,,0.00,meteohub,2013-10-10 22:17:00,
2013-10-10 17:22:00,82.4,68.0,29.99,ESE,119,0.0,2.0,62,0.00,,,0.00,meteohub,2013-10-10 22:22:00,
2013-10-10 17:27:00,82.6,67.8,29.99,ESE,119,0.0,2.0,61,0.00,,,0.00,meteohub,2013-10-10 22:27:00,
2013-10-10 17:32:00,82.6,67.3,29.99,SE,130,4.0,4.0,60,0.00,,,0.00,meteohub,2013-10-10 22:32:00,
2013-10-10 17:37:00,82.6,66.7,29.99,SE,124,5.0,8.0,59,0.00,,,0.00,meteohub,2013-10-10 22:37:00,
2013-10-10 17:42:00,82.4,67.1,29.99,ESE,122,0.0,8.0,60,0.00,,,0.00,meteohub,2013-10-10 22:42:00,
2013-10-10 17:47:00,82.4,67.1,29.99,ESE,123,2.0,8.0,60,0.00,,,0.00,meteohub,2013-10-10 22:47:00,
2013-10-10 17:52:00,82.6,66.7,29.99,ESE,121,2.0,6.0,59,0.00,,,0.00,meteohub,2013-10-10 22:52:00,
2013-10-10 17:57:00,82.2,66.4,29.98,SE,125,0.0,6.0,59,0.00,,,0.00,meteohub,2013-10-10 22:57:00,
2013-10-10 18:02:00,82.0,66.4,29.98,SE,126,2.0,6.0,59,0.00,,,0.00,meteohub,2013-10-10 23:02:00,
2013-10-10 18:07:00,82.2,66.9,29.98,SE,126,1.0,6.0,60,0.00,,,0.00,meteohub,2013-10-10 23:07:00,
2013-10-10 18:12:00,82.0,66.7,29.98,SE,127,0.0,4.0,60,0.00,,,0.00,meteohub,2013-10-10 23:12:00,
2013-10-10 18:17:00,82.0,67.3,29.98,SE,127,0.0,4.0,61,0.00,,,0.00,meteohub,2013-10-10 23:17:00,
2013-10-10 18:22:00,81.9,67.1,29.98,SE,127,0.0,4.0,61,0.00,,,0.00,meteohub,2013-10-10 23:22:00,
2013-10-10 18:27:00,81.7,67.5,29.98,SE,127,0.0,4.0,62,0.00,,,0.00,meteohub,2013-10-10 23:27:00,
2013-10-10 18:32:00,81.3,68.0,29.98,SE,127,0.0,4.0,64,0.00,,,0.00,meteohub,2013-10-10 23:32:00,
2013-10-10 18:37:00,80.4,66.7,29.98,SE,127,0.0,0.0,63,0.00,,,0.00,meteohub,2013-10-10 23:37:00,
2013-10-10 18:42:00,79.5,67.1,29.98,SE,127,0.0,0.0,66,0.00,,,0.00,meteohub,2013-10-10 23:42:00,
2013-10-10 18:47:00,79.0,67.1,29.98,SE,127,0.0,0.0,67,0.00,,,0.00,meteohub,2013-10-10 23:47:00,
2013-10-10 18:52:00,78.3,67.3,29.98,SE,127,0.0,0.0,69,0.00,,,0.00,meteohub,2013-10-10 23:52:00,
2013-10-10 18:57:00,77.5,67.8,29.98,SE,127,0.0,0.0,72,0.00,,,0.00,meteohub,2013-10-10 23:57:00,
2013-10-10 19:02:00,77.0,68.0,29.98,SE,127,0.0,0.0,74,0.00,,,0.00,meteohub,2013-10-11 00:02:00,
2013-10-10 19:07:00,76.6,68.5,29.98,SE,127,0.0,0.0,76,0.00,,,0.00,meteohub,2013-10-11 00:07:00,
2013-10-10 19:12:00,76.3,68.2,29.98,SE,127,0.0,0.0,76,0.00,,,0.00,meteohub,2013-10-11 00:12:00,
2013-10-10 19:17:00,75.7,68.0,29.98,SE,127,0.0,0.0,77,0.00,,,0.00,meteohub,2013-10-11 00:17:00,
2013-10-10 19:22:00,75.4,68.0,29.98,SE,127,0.0,0.0,78,0.00,,,0.00,meteohub,2013-10-11 00:22:00,
2013-10-10 19:27:00,75.0,68.0,29.98,SE,127,0.0,0.0,79,0.00,,,0.00,meteohub,2013-10-11 00:27:00,
2013-10-10 19:32:00,74.8,67.8,29.99,SE,127,0.0,0.0,79,0.00,,,0.00,meteohub,2013-10-11 00:32:00,
2013-10-10 19:37:00,74.5,67.8,29.99,SE,127,0.0,0.0,80,0.00,,,0.00,meteohub,2013-10-11 00:37:00,
2013-10-10 19:42:00,74.5,68.2,29.99,SE,127,0.0,0.0,81,0.00,,,0.00,meteohub,2013-10-11 00:42:00,
2013-10-10 19:47:00,74.1,68.0,29.99,SE,127,0.0,0.0,81,0.00,,,0.00,meteohub,2013-10-11 00:47:00,
2013-10-10 19:52:00,73.9,67.8,29.99,SE,127,0.0,0.0,81,0.00,,,0.00,meteohub,2013-10-11 00:52:00,
2013-10-10 19:57:00,73.8,68.0,29.99,SE,127,0.0,0.0,82,0.00,,,0.00,meteohub,2013-10-11 00:57:00,
2013-10-10 20:02:00,73.8,68.0,29.99,SE,127,0.0,0.0,82,0.00,,,0.00,meteohub,2013-10-11 01:02:00,
2013-10-10 20:07:00,73.6,68.2,29.99,SE,127,0.0,0.0,83,0.00,,,0.00,meteohub,2013-10-11 01:07:00,
2013-10-10 20:12:00,73.2,67.8,29.99,SE,127,0.0,0.0,83,0.00,,,0.00,meteohub,2013-10-11 01:12:00,
2013-10-10 20:17:00,73.2,68.2,29.99,SE,127,0.0,0.0,84,0.00,,,0.00,meteohub,2013-10-11 01:17:00,
2013-10-10 20:22:00,73.0,68.0,29.99,SE,127,0.0,0.0,84,0.00,,,0.00,meteohub,2013-10-11 01:22:00,
2013-10-10 20:27:00,72.9,67.8,29.99,SE,127,0.0,0.0,84,0.00,,,0.00,meteohub,2013-10-11 01:27:00,
2013-10-10 20:32:00,72.7,67.8,29.99,SE,127,0.0,0.0,85,0.00,,,0.00,meteohub,2013-10-11 01:32:00,
2013-10-10 20:37:00,72.5,68.0,29.99,SE,127,0.0,0.0,86,0.00,,,0.00,meteohub,2013-10-11 01:37:00,
2013-10-10 20:42:00,72.3,67.8,29.99,SE,127,0.0,0.0,86,0.00,,,0.00,meteohub,2013-10-11 01:42:00,
2013-10-10 20:47:00,72.1,67.6,29.99,SE,127,0.0,0.0,86,0.00,,,0.00,meteohub,2013-10-11 01:47:00,
2013-10-10 20:52:00,72.1,67.6,29.99,SE,127,0.0,0.0,86,0.00,,,0.00,meteohub,2013-10-11 01:52:00,
2013-10-10 20:57:00,72.0,67.8,29.99,SE,127,0.0,0.0,87,0.00,,,0.00,meteohub,2013-10-11 01:57:00,
2013-10-10 21:02:00,72.0,67.8,29.99,SE,127,0.0,0.0,87,0.00,,,0.00,meteohub,2013-10-11 02:02:00,
2013-10-10 21:07:00,71.8,67.6,29.99,SE,127,0.0,0.0,87,0.00,,,0.00,meteohub,2013-10-11 02:07:00,
2013-10-10 21:12:00,71.8,68.0,29.99,SE,127,0.0,0.0,88,0.00,,,0.00,meteohub,2013-10-11 02:12:00,
2013-10-10 21:17:00,71.6,67.8,29.99,SE,127,0.0,0.0,88,0.00,,,0.00,meteohub,2013-10-11 02:17:00,
2013-10-10 21:22:00,71.4,67.6,30.00,SE,127,0.0,0.0,88,0.00,,,0.00,meteohub,2013-10-11 02:22:00,
2013-10-10 21:27:00,71.2,67.5,30.00,SE,127,0.0,0.0,88,0.00,,,0.00,meteohub,2013-10-11 02:27:00,
2013-10-10 21:32:00,71.2,67.8,30.00,SE,127,0.0,0.0,89,0.00,,,0.00,meteohub,2013-10-11 02:32:00,
2013-10-10 21:37:00,71.1,67.6,30.00,SE,127,0.0,0.0,89,0.00,,,0.00,meteohub,2013-10-11 02:37:00,
2013-10-10 21:42:00,71.1,67.6,30.00,SE,127,0.0,0.0,89,0.00,,,0.00,meteohub,2013-10-11 02:42:00,
2013-10-10 21:47:00,70.9,67.5,30.00,SE,127,0.0,0.0,89,0.00,,,0.00,meteohub,2013-10-11 02:47:00,
2013-10-10 21:52:00,70.7,67.3,30.00,SE,127,0.0,0.0,89,0.00,,,0.00,meteohub,2013-10-11 02:52:00,
2013-10-10 21:57:00,70.5,67.5,30.00,SE,127,0.0,0.0,90,0.00,,,0.00,meteohub,2013-10-11 02:57:00,
2013-10-10 22:02:00,70.5,67.5,30.00,SE,127,0.0,0.0,90,0.00,,,0.00,meteohub,2013-10-11 03:02:00,
2013-10-10 22:07:00,70.3,67.3,30.00,SE,127,0.0,0.0,90,0.00,,,0.00,meteohub,2013-10-11 03:07:00,
2013-10-10 22:12:00,70.2,66.7,30.00,SE,127,0.0,0.0,89,0.00,,,0.00,meteohub,2013-10-11 03:12:00,
2013-10-10 22:17:00,70.2,67.1,30.00,SE,127,0.0,0.0,90,0.00,,,0.00,meteohub,2013-10-11 03:17:00,
2013-10-10 22:22:00,70.0,66.9,30.00,SE,127,0.0,0.0,90,0.00,,,0.00,meteohub,2013-10-11 03:22:00,
2013-10-10 22:27:00,70.0,67.3,30.00,SE,127,0.0,0.0,91,0.00,,,0.00,meteohub,2013-10-11 03:27:00,
2013-10-10 22:32:00,70.0,67.3,30.00,SE,127,0.0,0.0,91,0.00,,,0.00,meteohub,2013-10-11 03:32:00,
2013-10-10 22:37:00,69.8,67.1,30.00,SE,127,0.0,0.0,91,0.00,,,0.00,meteohub,2013-10-11 03:37:00,
2013-10-10 22:42:00,69.8,67.1,30.00,SE,127,0.0,0.0,91,0.00,,,0.00,meteohub,2013-10-11 03:42:00,
2013-10-10 22:47:00,69.6,66.9,30.00,SE,127,0.0,0.0,91,0.00,,,0.00,meteohub,2013-10-11 03:47:00,
2013-10-10 22:52:00,69.6,66.9,30.00,SE,127,0.0,0.0,91,0.00,,,0.00,meteohub,2013-10-11 03:52:00,
2013-10-10 22:57:00,69.4,67.1,30.00,SE,127,0.0,0.0,92,0.00,,,0.00,meteohub,2013-10-11 03:57:00,
2013-10-10 23:01:00,69.4,67.1,30.00,SE,127,0.0,0.0,92,0.00,,,0.00,meteohub,2013-10-11 04:01:00,
2013-10-10 23:02:00,69.4,67.1,30.00,SE,127,0.0,0.0,92,0.00,,,0.00,meteohub,2013-10-11 04:02:00,
2013-10-10 23:03:00,69.4,67.1,30.00,SE,127,0.0,0.0,92,0.00,,,0.00,meteohub,2013-10-11 04:03:00,
2013-10-10 23:04:00,69.4,67.1,30.00,SE,127,0.0,0.0,92,0.00,,,0.00,meteohub,2013-10-11 04:04:00,
2013-10-10 23:06:00,69.4,67.3,30.00,SE,127,0.0,0.0,93,0.00,,,0.00,meteohub,2013-10-11 04:06:00,
2013-10-10 23:11:00,69.4,67.3,30.00,SE,127,0.0,0.0,93,0.00,,,0.00,meteohub,2013-10-11 04:11:00,
2013-10-10 23:16:00,69.4,67.3,30.00,SE,127,0.0,0.0,93,0.00,,,0.00,meteohub,2013-10-11 04:16:00,
2013-10-10 23:21:00,69.3,67.1,30.00,SE,127,0.0,0.0,93,0.00,,,0.00,meteohub,2013-10-11 04:21:00,
2013-10-10 23:26:00,69.3,67.1,30.00,SE,127,0.0,0.0,93,0.00,,,0.00,meteohub,2013-10-11 04:26:00,
2013-10-10 23:31:00,69.1,66.9,29.99,SE,127,0.0,0.0,93,0.00,,,0.00,meteohub,2013-10-11 04:31:00,
2013-10-10 23:36:00,69.1,67.3,30.00,SE,127,0.0,0.0,94,0.00,,,0.00,meteohub,2013-10-11 04:36:00,
2013-10-10 23:41:00,69.1,67.3,29.99,SE,127,0.0,1.0,94,0.00,,,0.00,meteohub,2013-10-11 04:41:00,
2013-10-10 23:46:00,69.1,67.6,29.99,SE,127,0.0,1.0,95,0.00,,,0.00,meteohub,2013-10-11 04:46:00,
2013-10-10 23:52:00,69.1,67.6,30.00,SE,127,0.0,1.0,95,0.00,,,0.00,meteohub,2013-10-11 04:52:00,
2013-10-10 23:57:00,69.3,67.8,29.99,SE,127,0.0,1.0,95,0.00,,,0.00,meteohub,2013-10-11 04:57:00,